Le nostre stazioni meteo in Italia

Pubblicità
Il mio iltempo24.it
Edinburgh/Gogarbank, Gran Bretagna (3166): Temperatura & dewpoint: 08.11.2019 08:00:00 - 14.11.2019 08:00:00 (GMT)Edinburgh/Gogarbank, Gran Bretagna (3166): Temperatura -20cm & Temperatura -100cm: 08.11.2019 08:00:00 - 14.11.2019 08:00:00 (GMT)Edinburgh/Gogarbank, Gran Bretagna (3166): velocità del vento & gusts: 08.11.2019 08:00:00 - 14.11.2019 08:00:00 (GMT)Edinburgh/Gogarbank, Gran Bretagna (3166): direzione del vento: 08.11.2019 08:00:00 - 14.11.2019 08:00:00 (GMT)Edinburgh/Gogarbank, Gran Bretagna (3166): reduced air pressure: 08.11.2019 08:00:00 - 14.11.2019 08:00:00 (GMT)Edinburgh/Gogarbank, Gran Bretagna (3166): visibility: 08.11.2019 08:00:00 - 14.11.2019 08:00:00 (GMT)Edinburgh/Gogarbank, Gran Bretagna (3166): ore di luce: 08.11.2019 08:00:00 - 14.11.2019 08:00:00 (GMT)Edinburgh/Gogarbank, Gran Bretagna (3166): precipitazioni: 08.11.2019 08:00:00 - 14.11.2019 08:00:00 (GMT)
Data & Tempo tt [°C] td [°C] tt -20cm [°C] tt -100cm [°C] ff [km/h] ff [kn] fx [km/h] fx [kn] dd ppp [hPa] vv [km] sd [min] rr [mm]
14.11.2019 08:00:00 -1,0 -2,3 - - 5 3 - - SO 1006,4 50 0 0,0
14.11.2019 07:00:00 -1,3 -2,3 - - 5 3 - - OSO 1005,4 45 0 0,0
14.11.2019 06:00:00 -1,0 -1,9 - - 5 3 - - OSO 1004,4 50 0 0,0
14.11.2019 05:00:00 -0,2 -1,9 - - 4 2 - - O 1003,5 50 0 0,0
14.11.2019 04:00:00 2,0 -1,2 - - 8 4 - - N 1002,5 50 0 0,0
14.11.2019 03:00:00 2,8 -0,3 - - 9 5 - - N 1001,6 50 0 0,0
14.11.2019 02:00:00 2,6 0,2 - - 8 4 - - NE 1001,1 50 0 0,0
14.11.2019 01:00:00 2,7 1,2 - - 13 7 - - NNE 1000,3 50 0 0,6
14.11.2019 00:00:00 2,6 1,7 - - 8 4 - - NE 999,5 50 - 0,0
13.11.2019 23:00:00 1,6 1,5 - - 4 2 - - N 998,8 45 0 0,0
13.11.2019 22:00:00 -0,8 -1,1 - - 2 1 - - S 998,4 16 0 0,0
13.11.2019 21:00:00 -0,8 -1,4 - - 2 1 - - SSO 997,7 20 0 0,0
13.11.2019 20:00:00 0,1 -0,7 - - 2 1 - - ONO 997,1 25 0 0,0
13.11.2019 19:00:00 1,0 0,0 - - 2 1 - - S 996,6 30 0 0,0
13.11.2019 18:00:00 1,3 0,0 - - 2 1 - - SE 996,1 30 0 0,0
13.11.2019 17:00:00 1,9 0,6 - - 2 1 - - SSE 995,5 45 0 0,0
13.11.2019 16:00:00 2,9 1,0 - - 8 4 - - E 995,3 50 18 0,0
13.11.2019 15:00:00 3,7 2,4 - - 9 5 - - NE 995,2 22 24 0,0
13.11.2019 14:00:00 2,6 2,0 - - 5 3 - - NNE 995,4 11 0 0,0
13.11.2019 13:00:00 1,8 0,8 - - 2 1 - - NNO 995,9 14 0 0,2
13.11.2019 12:00:00 1,1 0,4 - - 2 1 - - NNE 996,2 18 0 0,0
13.11.2019 11:00:00 0,4 0,0 - - 4 2 - - SO 996,7 12 6 0,0
13.11.2019 10:00:00 -0,4 -0,7 - - 5 3 - - S 997,2 15 6 0,0
13.11.2019 09:00:00 -1,5 -1,7 8,2 9,7 2 1 - - NE 997,7 9 18 0,0
13.11.2019 08:00:00 -2,4 -2,7 - - 2 1 - - S 997,8 12 0 0,0
13.11.2019 07:00:00 -3,0 -3,4 - - 0 0 - - N 998,2 12 0 0,0
13.11.2019 06:00:00 -2,5 -2,9 - - 2 1 - - OSO 998,4 14 0 0,0
13.11.2019 05:00:00 -2,7 -3,1 - - 2 1 - - E 998,7 30 0 0,0
13.11.2019 04:00:00 -2,5 -3,1 - - 0 0 - - N 999,1 27 0 0,0
13.11.2019 03:00:00 -2,1 -3,0 - - 4 2 - - ONO 999,6 40 0 0,0
13.11.2019 02:00:00 -0,2 -1,5 - - 5 3 - - SSO 999,8 50 0 0,0
13.11.2019 01:00:00 -0,3 -1,7 - - 5 3 - - SO 1000,1 50 0 0,0
13.11.2019 00:00:00 0,8 -1,0 - - 5 3 - - SSO 1000,4 50 - 0,0
12.11.2019 23:00:00 1,7 -0,2 - - 9 5 - - SO 1000,5 30 0 0,0
12.11.2019 22:00:00 2,3 -0,1 - - 9 5 - - O 1000,5 45 0 0,0
12.11.2019 21:00:00 2,3 0,0 - - 8 4 - - OSO 1000,2 50 0 0,0
12.11.2019 20:00:00 3,8 -0,1 - - 9 5 - - ONO 999,7 50 0 0,0
12.11.2019 19:00:00 5,7 0,9 - - 13 7 - - NO 999,4 50 0 0,0
12.11.2019 18:00:00 6,4 1,7 - - 18 10 - - NNO 998,8 50 0 0,0
12.11.2019 17:00:00 6,7 2,7 - - 13 7 - - NO 998,0 50 0 0,0
12.11.2019 16:00:00 7,2 2,9 - - 15 8 - - NNO 997,2 50 0 0,0
12.11.2019 15:00:00 7,6 3,1 - - 16 9 - - NNO 996,3 50 0 0,0
12.11.2019 14:00:00 7,3 3,7 - - 16 9 - - NO 995,4 50 0 0,0
12.11.2019 13:00:00 7,6 4,0 - - 24 13 - - NO 994,6 50 0 0,0
12.11.2019 12:00:00 8,3 4,0 - - 26 14 - - NNO 993,4 45 0 0,0
12.11.2019 11:00:00 7,9 4,0 - - 24 13 - - NNO 992,8 45 0 0,0
12.11.2019 10:00:00 7,3 3,9 - - 22 12 - - NO 991,8 50 0 0,0
12.11.2019 09:00:00 5,6 3,8 8,4 9,7 18 10 - - ONO 991,1 50 0 0,0
12.11.2019 08:00:00 4,8 3,7 - - 13 7 - - ONO 990,2 35 0 0,2
12.11.2019 07:00:00 4,4 2,8 - - 15 8 - - O 989,2 14 0 0,2
12.11.2019 06:00:00 4,0 2,0 - - 13 7 - - O 988,7 50 0 0,0
12.11.2019 05:00:00 3,0 1,6 - - 13 7 - - OSO 988,2 50 0 0,0
12.11.2019 04:00:00 3,0 1,6 - - 15 8 - - OSO 988,1 50 0 0,0
12.11.2019 03:00:00 3,2 2,0 - - 11 6 - - OSO 988,4 50 0 0,0
12.11.2019 02:00:00 3,8 2,4 - - 9 5 - - O 988,7 50 0 0,0
12.11.2019 01:00:00 4,5 3,1 - - 9 5 - - O 988,6 50 0 0,0
12.11.2019 00:00:00 4,6 2,8 - - 13 7 - - O 988,7 50 - 0,0
11.11.2019 23:00:00 5,2 3,3 - - 13 7 - - O 989,0 50 0 0,0
11.11.2019 22:00:00 5,1 3,2 - - 22 12 - - O 989,0 50 0 0,0
11.11.2019 21:00:00 5,2 3,6 - - 24 13 - - OSO 989,4 23 0 0,0
11.11.2019 20:00:00 5,3 3,1 - - 24 13 - - O 989,5 50 0 0,2
11.11.2019 19:00:00 5,4 3,5 - - 22 12 - - OSO 989,7 30 0 0,2
11.11.2019 18:00:00 5,4 3,4 - - 22 12 - - OSO 989,8 50 0 0,0
11.11.2019 17:00:00 5,6 3,3 - - 18 10 - - OSO 989,9 50 0 0,0
11.11.2019 16:00:00 5,7 3,6 - - 18 10 - - O 990,1 50 0 0,0
11.11.2019 15:00:00 6,0 4,2 - - 18 10 - - O 990,0 50 0 0,0
11.11.2019 14:00:00 5,2 3,8 - - 15 8 - - O 990,3 35 0 0,2
11.11.2019 13:00:00 4,8 3,5 - - 21 11 - - O 990,2 14 0 0,4
11.11.2019 12:00:00 5,1 4,0 - - 31 17 48 26 O 989,0 11 0 0,4
11.11.2019 11:00:00 5,5 4,0 - - 18 10 - - SO 987,9 30 0 0,0
11.11.2019 10:00:00 5,8 4,0 - - 26 14 - - SO 988,7 9 0 0,2
11.11.2019 09:00:00 6,2 3,6 8,4 10,0 26 14 - - SO 990,0 14 0 0,0
11.11.2019 08:00:00 5,9 3,0 - - 22 12 46 25 OSO 990,8 50 0 0,0
11.11.2019 07:00:00 5,9 4,1 - - 21 11 - - OSO 991,7 29 0 0,0
11.11.2019 06:00:00 5,6 4,4 - - 16 9 - - SO 992,0 35 0 0,4
11.11.2019 05:00:00 4,1 2,9 - - 8 4 - - SSO 992,5 17 0 0,4
11.11.2019 04:00:00 3,9 1,8 - - 5 3 - - S 993,3 50 0 0,0
11.11.2019 03:00:00 3,8 1,9 - - 8 4 - - SSE 994,4 25 0 0,2
11.11.2019 02:00:00 4,0 2,0 - - 15 8 - - ESE 995,8 45 0 0,0
11.11.2019 01:00:00 3,3 2,3 - - 11 6 - - ESE 997,5 45 0 0,4
11.11.2019 00:00:00 3,2 2,3 - - 13 7 - - ESE 999,9 19 - 1,0
10.11.2019 23:00:00 3,8 2,3 - - 11 6 - - SE 1001,9 12 0 0,2
10.11.2019 22:00:00 3,4 1,7 - - 11 6 - - ESE 1003,7 30 0 0,2
10.11.2019 21:00:00 3,8 1,0 - - 11 6 - - ESE 1005,9 50 0 0,0
10.11.2019 20:00:00 2,8 1,3 - - 9 5 - - SE 1008,2 40 0 0,0
10.11.2019 19:00:00 2,4 1,0 - - 5 3 - - ESE 1009,5 29 0 0,0
10.11.2019 18:00:00 2,5 0,6 - - 4 2 - - SSO 1011,0 45 0 0,0
10.11.2019 17:00:00 2,5 0,3 - - 2 1 - - SSE 1012,1 45 0 0,0
10.11.2019 16:00:00 3,7 0,7 - - 8 4 - - ESE 1012,7 45 0 0,0
10.11.2019 15:00:00 4,5 0,3 - - 4 2 - - NNE 1013,9 40 12 0,0
10.11.2019 14:00:00 4,3 -0,3 - - 2 1 - - SSO 1015,5 50 0 0,0
10.11.2019 13:00:00 3,9 -0,4 - - 4 2 - - OSO 1016,3 45 0 0,0
10.11.2019 12:00:00 3,4 -0,4 - - 9 5 - - O 1016,8 45 0 0,0
10.11.2019 11:00:00 2,8 -0,3 - - 4 2 - - OSO 1017,0 40 0 0,0
10.11.2019 10:00:00 1,8 -0,8 - - 4 2 - - OSO 1018,0 50 0 0,0
10.11.2019 09:00:00 1,1 -1,5 8,7 10,0 11 6 - - SSO 1018,3 40 0 0,0
10.11.2019 08:00:00 0,5 -1,5 - - 8 4 - - SSO 1017,4 45 0 0,0
10.11.2019 07:00:00 0,4 -1,6 - - 9 5 - - SO 1016,8 40 0 0,0
10.11.2019 06:00:00 -0,1 -1,9 - - 5 3 - - S 1016,4 45 0 0,0
10.11.2019 05:00:00 0,1 -1,6 - - 9 5 - - SO 1016,0 40 0 0,0
10.11.2019 04:00:00 -0,5 -2,3 - - 8 4 - - SO 1015,3 45 0 0,0
10.11.2019 03:00:00 0,3 -2,2 - - 5 3 - - O 1015,0 50 0 0,0
10.11.2019 02:00:00 2,4 -1,5 - - 8 4 - - N 1014,1 50 0 0,0
10.11.2019 01:00:00 4,0 -0,6 - - 13 7 - - NNE 1014,0 50 0 0,0
10.11.2019 00:00:00 4,1 0,2 - - 11 6 - - N 1013,5 50 - 0,0
09.11.2019 23:00:00 3,9 0,9 - - 11 6 - - NNE 1012,7 50 0 0,0
09.11.2019 22:00:00 3,0 2,0 - - 5 3 - - S 1011,7 40 0 0,2
09.11.2019 21:00:00 2,2 1,4 - - 4 2 - - O 1011,0 13 0 0,0
09.11.2019 20:00:00 3,0 1,8 - - 4 2 - - NNO 1010,2 50 0 0,2
09.11.2019 19:00:00 3,4 1,6 - - 8 4 - - NNE 1009,9 50 0 0,0
09.11.2019 18:00:00 3,9 1,2 - - 18 10 - - ESE 1008,9 16 0 0,0
09.11.2019 17:00:00 4,6 0,5 - - 13 7 - - E 1008,1 50 0 0,0
09.11.2019 16:00:00 5,5 0,5 - - 13 7 - - E 1007,2 45 0 0,0
09.11.2019 15:00:00 6,0 -0,8 - - 9 5 - - E 1006,6 50 54 0,0
09.11.2019 14:00:00 5,7 -0,8 - - 9 5 - - E 1006,4 45 36 0,0
09.11.2019 13:00:00 6,3 -0,4 - - 16 9 - - ESE 1006,3 45 60 0,0
09.11.2019 12:00:00 5,1 -0,3 - - 9 5 - - E 1006,3 45 36 0,0
09.11.2019 11:00:00 4,0 -1,1 - - 18 10 - - E 1006,5 45 6 0,2
09.11.2019 10:00:00 3,6 -1,0 - - 16 9 - - ESE 1006,8 40 18 0,0
09.11.2019 09:00:00 1,2 -1,1 8,9 10,2 8 4 - - E 1007,1 50 0 0,0
09.11.2019 08:00:00 0,7 -1,1 - - 11 6 - - E 1007,0 50 0 0,0
09.11.2019 07:00:00 1,0 -0,6 - - 11 6 - - E 1007,6 50 0 0,0
09.11.2019 06:00:00 -1,9 -2,3 - - 2 1 - - SSO 1008,0 29 0 0,0
09.11.2019 05:00:00 -2,0 -2,4 - - 2 1 - - O 1008,3 17 0 0,0
09.11.2019 04:00:00 -1,7 -1,9 - - 5 3 - - ESE 1008,8 21 0 0,0
09.11.2019 03:00:00 -2,1 -2,4 - - 2 1 - - ENE 1009,7 13 0 0,0
09.11.2019 02:00:00 -2,0 -2,3 - - 4 2 - - O 1010,6 13 0 0,0
09.11.2019 01:00:00 -2,2 -2,6 - - 2 1 - - E 1011,8 10 0 0,0
09.11.2019 00:00:00 -1,2 -1,4 - - 4 2 - - SO 1012,6 11 - 0,0
08.11.2019 23:00:00 -1,4 -1,8 - - 2 1 - - SO 1012,4 13 0 0,0
08.11.2019 22:00:00 -1,3 -1,9 - - 4 2 - - OSO 1013,1 20 0 0,0
08.11.2019 21:00:00 -0,2 -0,8 - - 4 2 - - SO 1013,4 18 0 0,0
08.11.2019 20:00:00 0,4 -0,6 - - 4 2 - - SSO 1013,2 19 0 0,0
08.11.2019 19:00:00 1,5 0,1 - - 2 1 - - ENE 1013,5 35 0 0,0
08.11.2019 18:00:00 2,7 0,4 - - 2 1 - - O 1013,8 40 0 0,0
08.11.2019 17:00:00 4,5 1,1 - - 5 3 - - NO 1013,5 45 0 0,0
08.11.2019 16:00:00 5,6 1,5 - - 4 2 - - N 1013,1 45 42 0,0
08.11.2019 15:00:00 5,6 1,2 - - 4 2 - - NNE 1013,0 50 12 0,0
08.11.2019 14:00:00 5,7 1,1 - - 5 3 - - N 1013,1 35 6 0,0
08.11.2019 13:00:00 6,0 0,7 - - 5 3 - - NO 1013,1 45 42 0,0
08.11.2019 12:00:00 4,7 0,1 - - 5 3 - - ONO 1013,3 50 18 0,0
08.11.2019 11:00:00 3,5 0,4 - - 5 3 - - OSO 1013,6 45 6 0,0
08.11.2019 10:00:00 2,3 -1,0 - - 5 3 - - SO 1012,9 27 48 0,0
08.11.2019 09:00:00 1,1 -1,2 9,2 10,2 8 4 - - OSO 1012,8 30 48 0,0
08.11.2019 08:00:00 -0,3 -1,8 - - 5 3 - - SO 1012,4 45 0 0,0

tt = Temperatura
td = dewpoint
tt -20cm = Temperatura -20cm
tt -100cm = Temperatura -100cm
ff = velocità del vento
fx = gusts
dd = direzione del vento
ppp = reduced air pressure
vv = visibility
sd = ore di luce
rr = precipitazioni

Stazioni seguenti

WeatherPro
AMSI
MeteoEarth